Theta_e
313 312 311 311 310 310 310 310 310 311 311 311 312 313 312 312 312 313 314 314 315 317 319 322 332 338 337 334 337 336 334 338
311 310 308 307 306 306 306 306 306 308 309 309 308 308 310 311 312 311 312 313 314 314 315 316 319 329 337 337 336 334 334 336
309 306 304 303 303 302 302 302 302 302 303 304 306 307 306 308 309 310 309 310 311 312 313 314 314 316 325 334 337 336 336 336
308 304 302 301 300 300 299 300 299 300 300 302 305 306 306 305 306 307 307 308 308 308 309 311 312 313 315 320 332 335 335 335
305 302 301 300 298 297 296 297 297 298 299 299 298 298 298 298 299 300 303 304 306 306 307 307 309 311 313 315 318 329 334 331
303 302 299 298 297 296 295 295 296 296 296 296 296 297 297 297 298 298 299 301 303 306 306 306 308 310 312 314 316 319 332 333
302 300 298 296 295 295 295 294 293 294 294 294 295 295 295 296 296 297 297 298 299 301 303 304 306 308 310 313 315 320 327 330
299 299 297 296 294 293 294 293 292 292 292 292 293 294 294 294 295 295 295 297 298 299 300 301 303 305 308 310 312 315 323 328
297 296 295 295 294 293 292 292 292 291 291 291 292 292 292 293 293 293 294 295 295 296 297 298 300 302 305 308 312 314 317 325
294 293 293 293 293 292 291 291 291 291 290 291 291 291 291 291 291 292 292 292 293 294 294 296 298 300 304 308 313 315 317 323
295 293 292 292 292 292 290 290 290 290 290 290 290 290 290 290 289 289 289 289 290 291 293 294 296 299 301 303 308 316 317 323
293 292 291 291 291 290 289 289 289 289 289 289 289 289 289 289 288 287 287 288 288 289 290 292 293 295 297 299 304 315 318 319
292 291 291 291 290 289 288 288 288 288 289 289 289 289 288 288 287 287 286 286 287 287 288 289 290 291 293 294 297 306 318 321
291 290 290 289 289 288 287 287 287 288 288 288 288 288 288 288 287 287 286 286 286 286 287 287 288 289 290 291 293 300 308 320
291 290 289 289 288 287 287 287 287 287 287 287 286 286 287 287 286 285 285 284 285 285 286 287 287 288 288 289 291 298 304 312
290 289 289 288 288 287 287 287 286 286 286 286 285 285 285 285 285 285 284 284 284 284 284 286 286 287 286 287 289 291 294 299
289 288 288 288 288 287 287 286 285 285 285 285 284 284 284 283 284 283 284 283 283 283 283 284 285 286 286 286 287 288 289 290
288 288 288 288 287 287 287 286 285 284 283 283 282 282 282 282 282 282 281 282 282 282 282 282 284 286 286 285 285 286 286 287
287 287 286 286 286 287 286 286 285 284 283 283 282 280 280 280 280 280 280 280 280 280 281 281 282 284 285 285 285 284 284 285
Wind_Speed
13 21 19 16 17 19 20 18 15 11 9 7 6 5 9 9 12 11 12 13 13 14 14 14 16 24 25 32 41 30 21 31
17 21 18 17 18 20 21 21 19 16 13 10 7 17 11 14 13 16 16 16 17 19 19 19 15 15 21 23 29 29 25 34
12 17 23 19 19 19 22 23 22 21 19 16 12 12 9 12 15 17 19 21 21 20 20 21 20 20 17 18 24 22 23 30
11 15 19 20 21 20 21 21 21 23 22 19 15 10 16 18 24 23 23 24 24 22 21 20 21 19 21 21 18 24 20 19
12 13 18 21 18 21 24 24 24 25 23 22 20 16 9 14 23 24 25 24 25 26 24 22 21 20 20 24 24 22 24 17
12 12 16 21 22 18 23 27 29 26 24 22 17 15 13 14 16 22 22 22 24 24 25 23 21 19 19 20 24 26 27 26
14 18 16 19 22 18 25 23 28 26 27 23 21 19 19 19 18 19 20 22 24 24 25 25 26 26 24 22 23 27 28 32
14 15 20 19 18 23 19 21 21 23 26 24 23 20 17 17 17 19 22 22 21 23 26 28 28 27 27 28 28 28 27 32
11 15 17 18 16 15 18 19 19 23 25 22 20 17 17 16 18 20 20 21 23 24 25 26 28 27 28 29 29 27 29 30
8 10 15 17 19 22 24 23 21 25 22 21 20 20 21 21 20 18 20 21 23 25 26 25 27 27 26 29 28 28 27 30
9 12 16 17 20 20 25 24 24 23 22 22 20 19 19 21 20 21 23 23 25 25 27 28 27 27 26 28 29 29 28 28
8 10 11 14 15 17 19 20 19 20 20 20 19 22 22 21 22 23 24 26 26 26 27 26 26 28 28 30 30 26 27 28
6 9 9 11 13 19 20 21 21 20 20 21 23 24 22 23 25 26 28 27 28 27 27 26 28 28 30 30 31 26 25 26
7 8 8 8 13 16 18 19 19 18 20 22 23 23 24 25 25 26 27 29 29 30 30 30 31 30 32 34 33 31 24 25
8 8 13 17 20 19 19 18 17 19 21 22 23 24 23 26 26 27 28 29 29 30 31 32 34 30 35 37 35 27 25 21
8 8 11 12 11 12 14 16 18 19 22 22 23 23 24 25 25 26 28 29 30 31 33 33 36 35 39 41 33 28 26 19
7 6 7 9 12 12 14 18 21 21 20 21 21 23 24 25 25 29 27 31 32 34 36 35 37 40 47 44 39 32 30 27
5 4 6 8 10 12 14 17 18 21 22 22 25 27 27 29 29 30 32 32 31 34 37 36 36 44 51 46 40 34 32 32
4 4 6 9 8 11 14 17 20 20 21 21 24 26 28 29 30 30 31 30 30 29 34 37 37 43 50 49 41 37 34 33
Wind_Direction
71 70 73 77 92 96 97 92 84 82 80 78 77 47 9 360 350 339 328 320 310 304 306 305 304 273 257 226 241 242 247 249
73 75 72 70 61 65 69 68 59 54 51 39 22 9 11 358 353 342 338 326 316 309 305 304 311 300 295 267 253 251 237 234
68 70 70 52 52 51 58 65 60 57 54 45 38 3 346 5 351 346 344 335 329 321 313 305 299 294 288 292 269 250 250 246
88 67 58 43 36 40 42 50 50 49 44 37 27 27 354 352 351 348 345 341 337 332 323 313 303 293 284 275 282 250 248 246
65 61 54 54 27 35 39 41 44 40 37 40 32 36 9 341 340 340 342 344 339 337 330 322 313 303 284 274 269 266 246 237
63 64 59 50 31 12 35 32 40 38 35 38 35 27 2 342 337 334 342 338 337 337 335 324 317 307 295 288 277 261 249 240
44 38 42 44 44 15 25 24 32 31 32 32 25 19 3 350 345 338 335 334 332 332 330 323 315 313 301 297 281 269 253 239
32 22 20 21 22 21 19 21 21 25 31 26 21 11 2 348 346 335 332 329 329 322 323 322 315 305 297 292 286 277 266 236
55 31 13 7 10 9 18 18 18 24 26 20 15 7 357 345 346 340 329 325 321 320 319 319 316 311 307 297 280 272 259 248
34 34 15 359 4 12 16 8 12 24 19 14 9 6 2 353 349 343 334 329 326 326 329 324 325 322 313 299 283 265 254 249
42 26 9 355 2 3 14 11 13 13 14 12 8 1 1 0 357 352 347 339 336 336 338 338 332 331 325 315 305 265 251 249
58 41 4 359 358 4 10 12 12 12 10 12 10 11 8 7 4 1 357 351 348 350 346 340 339 340 333 324 317 281 246 242
54 38 12 1 359 9 9 13 14 12 9 11 16 16 10 11 9 9 9 2 359 358 353 350 349 348 340 333 322 312 261 242
37 24 15 4 18 15 16 15 12 11 19 16 13 14 15 16 10 8 9 8 6 7 4 1 356 354 347 339 329 317 302 266
34 13 13 10 14 10 13 10 12 13 21 20 17 13 11 14 16 19 21 22 15 10 9 8 6 2 356 348 343 337 329 308
35 20 22 18 17 15 12 14 17 18 25 20 15 15 18 20 19 20 24 25 23 20 17 15 16 13 4 2 359 5 2 345
66 53 43 26 26 23 21 24 27 30 29 24 18 21 23 19 17 19 19 24 24 24 21 18 18 18 14 14 15 16 20 15
102 68 46 39 24 32 30 36 33 34 30 25 25 29 28 27 28 26 21 18 21 23 23 19 19 21 20 21 20 18 20 18
109 75 68 42 35 42 49 51 45 38 35 29 27 30 32 33 34 31 25 22 20 19 23 20 19 22 21 22 22 19 20 20